Meteo pe oră la Dzianisz

Astăzi, 7 Martie, Duminică

Timp Temperatura Precipitaţii Vânt Presiune Umiditate
00:00 -6°C° 0 mm 1 m/s 692 mmHg 74%
01:00 -6°C° 0 mm 1 m/s 692 mmHg 74%
02:00 -7°C° 0 mm 1 m/s 692 mmHg 74%
03:00 -8°C° 0 mm 2 m/s 691 mmHg 74%
04:00 -8°C° 0 mm 2 m/s 691 mmHg 74%
05:00 -7°C° 0 mm 2 m/s 691 mmHg 74%
06:00 -7°C° 0 mm 2 m/s 690 mmHg 73%
07:00 -7°C° 0 mm 2 m/s 690 mmHg 73%
08:00 -5°C° 0 mm 2 m/s 690 mmHg 67%
09:00 -3°C° 0 mm 2 m/s 690 mmHg 61%
10:00 -1°C° 0 mm 3 m/s 690 mmHg 55%
11:00 -1°C° 0 mm 3 m/s 690 mmHg 52%
12:00 0°C° 0 mm 3 m/s 690 mmHg 50%
13:00 +1°C° 0 mm 3 m/s 689 mmHg 47%
14:00 +1°C° 0 mm 3 m/s 689 mmHg 49%
15:00 +1°C° 0 mm 3 m/s 688 mmHg 51%
16:00 +1°C° 0 mm 2 m/s 687 mmHg 52%
17:00 -2°C° 0 mm 2 m/s 687 mmHg 57%
18:00 -3°C° 0 mm 2 m/s 686 mmHg 62%
19:00 -3°C° 0 mm 1 m/s 686 mmHg 67%
20:00 -3°C° 0 mm 1 m/s 686 mmHg 68%
21:00 -3°C° 0 mm 1 m/s 686 mmHg 68%
22:00 -3°C° 0 mm 1 m/s 685 mmHg 69%
23:00 -4°C° 0 mm 1 m/s 685 mmHg 70%

Mâine, 8 Martie, Luni

Timp Temperatura Precipitaţii Vânt Presiune Umiditate
00:00 -4°C° 0 mm 1 m/s 685 mmHg 72%
01:00 -4°C° 0 mm 1 m/s 685 mmHg 74%
02:00 -4°C° 0 mm 1 m/s 685 mmHg 76%
03:00 -4°C° 0 mm 1 m/s 684 mmHg 78%
04:00 -6°C° 0 mm 1 m/s 684 mmHg 81%
05:00 -4°C° 0 mm 1 m/s 684 mmHg 82%
06:00 -4°C° 0 mm 1 m/s 684 mmHg 83%
07:00 -4°C° 0 mm 1 m/s 685 mmHg 84%
08:00 -3°C° 0 mm 1 m/s 685 mmHg 81%
09:00 -2°C° 0 mm 1 m/s 686 mmHg 78%
10:00 -2°C° 0 mm 2 m/s 686 mmHg 75%
11:00 -2°C° 0.2 mm 2 m/s 686 mmHg 75%
12:00 -2°C° 0.2 mm 2 m/s 686 mmHg 75%
13:00 -1°C° 0.2 mm 2 m/s 687 mmHg 76%
14:00 -2°C° 0.2 mm 2 m/s 687 mmHg 76%
15:00 -3°C° 0.2 mm 2 m/s 686 mmHg 76%
16:00 -3°C° 0.2 mm 2 m/s 686 mmHg 76%
17:00 -4°C° 0 mm 2 m/s 687 mmHg 78%
18:00 -4°C° 0 mm 1 m/s 687 mmHg 81%
19:00 -6°C° 0 mm 1 m/s 687 mmHg 84%
20:00 -6°C° 0 mm 1 m/s 687 mmHg 84%
21:00 -7°C° 0 mm 1 m/s 687 mmHg 83%
22:00 -7°C° 0 mm 1 m/s 687 mmHg 83%
23:00 -7°C° 0 mm 0 m/s 687 mmHg 82%

Poimâine, 9 Martie, Marţi

Timp Temperatura Precipitaţii Vânt Presiune Umiditate
00:00 -7°C° 0 mm 0 m/s 687 mmHg 81%
01:00 -7°C° 0 mm 0 m/s 687 mmHg 80%
02:00 -8°C° 0 mm 0 m/s 687 mmHg 81%
03:00 -8°C° 0 mm 0 m/s 687 mmHg 81%
04:00 -8°C° 0 mm 0 m/s 687 mmHg 81%
05:00 -8°C° 0 mm 0 m/s 687 mmHg 80%
06:00 -8°C° 0 mm 0 m/s 687 mmHg 80%
07:00 -7°C° 0 mm 0 m/s 687 mmHg 79%
08:00 -6°C° 0 mm 0 m/s 688 mmHg 73%
09:00 -4°C° 0 mm 0 m/s 688 mmHg 66%
10:00 -2°C° 0 mm 1 m/s 689 mmHg 60%
11:00 -1°C° 0 mm 1 m/s 689 mmHg 59%
12:00 -1°C° 0 mm 1 m/s 689 mmHg 57%
13:00 0°C° 0 mm 1 m/s 689 mmHg 55%
14:00 -1°C° 0 mm 1 m/s 688 mmHg 58%
15:00 -1°C° 0 mm 1 m/s 688 mmHg 61%
16:00 -2°C° 0 mm 1 m/s 688 mmHg 63%
17:00 -3°C° 0 mm 1 m/s 688 mmHg 71%
18:00 -4°C° 0 mm 1 m/s 688 mmHg 78%
19:00 -6°C° 0 mm 1 m/s 688 mmHg 85%
20:00 -6°C° 0 mm 0 m/s 688 mmHg 86%
21:00 -6°C° 0 mm 0 m/s 688 mmHg 87%
22:00 -6°C° 0 mm 0 m/s 688 mmHg 87%
23:00 -7°C° 0 mm 0 m/s 688 mmHg 88%

10 Martie, Miercuri

Timp Temperatura Precipitaţii Vânt Presiune Umiditate
00:00 -7°C° 0 mm 0 m/s 688 mmHg 88%
01:00 -7°C° 0 mm 0 m/s 688 mmHg 88%
02:00 -7°C° 0 mm 0 m/s 688 mmHg 88%
03:00 -7°C° 0 mm 0 m/s 688 mmHg 88%
04:00 -8°C° 0 mm 0 m/s 687 mmHg 88%
05:00 -7°C° 0 mm 0 m/s 688 mmHg 86%
06:00 -7°C° 0 mm 0 m/s 688 mmHg 85%
07:00 -7°C° 0 mm 0 m/s 688 mmHg 83%
08:00 -5°C° 0 mm 0 m/s 689 mmHg 74%
09:00 -4°C° 0 mm 0 m/s 689 mmHg 66%
10:00 -1°C° 0 mm 1 m/s 690 mmHg 58%
11:00 0°C° 0 mm 1 m/s 690 mmHg 54%
12:00 +1°C° 0 mm 1 m/s 690 mmHg 51%
13:00 +1°C° 0 mm 1 m/s 690 mmHg 47%
14:00 +1°C° 0 mm 1 m/s 690 mmHg 47%
15:00 +1°C° 0 mm 1 m/s 689 mmHg 48%
16:00 +1°C° 0 mm 1 m/s 689 mmHg 48%
17:00 -1°C° 0 mm 1 m/s 689 mmHg 53%
18:00 -2°C° 0 mm 1 m/s 689 mmHg 59%
19:00 -4°C° 0 mm 0 m/s 689 mmHg 64%
20:00 -4°C° 0 mm 1 m/s 689 mmHg 65%
21:00 -4°C° 0 mm 1 m/s 689 mmHg 65%
22:00 -4°C° 0 mm 1 m/s 689 mmHg 65%
23:00 -4°C° 0 mm 1 m/s 689 mmHg 65%

11 Martie, Joi

Timp Temperatura Precipitaţii Vânt Presiune Umiditate
00:00 -6°C° 0 mm 2 m/s 689 mmHg 66%
01:00 -6°C° 0 mm 2 m/s 688 mmHg 66%
02:00 -6°C° 0 mm 2 m/s 688 mmHg 68%
03:00 -5°C° 0 mm 2 m/s 688 mmHg 69%
04:00 -5°C° 0 mm 2 m/s 687 mmHg 71%
05:00 -5°C° 0 mm 2 m/s 687 mmHg 74%
06:00 -5°C° 0 mm 3 m/s 687 mmHg 78%
07:00 -5°C° 0 mm 3 m/s 687 mmHg 82%
08:00 -3°C° 0 mm 4 m/s 687 mmHg 78%
09:00 -2°C° 0 mm 4 m/s 687 mmHg 74%
10:00 -1°C° 0 mm 5 m/s 687 mmHg 71%
11:00 -1°C° 0.1 mm 5 m/s 686 mmHg 73%
12:00 -1°C° 0.1 mm 5 m/s 686 mmHg 75%
13:00 -1°C° 0.1 mm 6 m/s 686 mmHg 77%
14:00 -1°C° 0.2 mm 5 m/s 685 mmHg 80%
15:00 -1°C° 0.2 mm 5 m/s 685 mmHg 82%
16:00 -1°C° 0.2 mm 5 m/s 684 mmHg 85%
17:00 -1°C° 0.1 mm 4 m/s 684 mmHg 86%
18:00 -1°C° 0.1 mm 4 m/s 684 mmHg 87%
19:00 -1°C° 0.1 mm 4 m/s 683 mmHg 88%
20:00 -1°C° 0 mm 4 m/s 683 mmHg 86%
21:00 0°C° 0 mm 3 m/s 683 mmHg 84%
22:00 0°C° 0 mm 3 m/s 683 mmHg 83%
23:00 0°C° 0 mm 3 m/s 683 mmHg 84%

12 Martie, Vineri

Timp Temperatura Precipitaţii Vânt Presiune Umiditate
00:00 0°C° 0 mm 3 m/s 683 mmHg 86%
01:00 0°C° 0 mm 3 m/s 682 mmHg 87%
02:00 0°C° 0 mm 3 m/s 682 mmHg 89%
03:00 0°C° 0 mm 3 m/s 682 mmHg 91%
04:00 +1°C° 0 mm 2 m/s 681 mmHg 93%
05:00 0°C° 0.5 mm 3 m/s 681 mmHg 93%
06:00 +1°C° 0.5 mm 3 m/s 682 mmHg 94%
07:00 +1°C° 0.5 mm 3 m/s 682 mmHg 94%
08:00 0°C° 0.2 mm 4 m/s 682 mmHg 92%
09:00 +1°C° 0.2 mm 4 m/s 682 mmHg 90%
10:00 +1°C° 0.2 mm 5 m/s 682 mmHg 88%
11:00 +1°C° 0.1 mm 5 m/s 682 mmHg 85%
12:00 +2°C° 0.1 mm 5 m/s 682 mmHg 81%
13:00 +2°C° 0.1 mm 5 m/s 681 mmHg 78%
14:00 +2°C° 0.1 mm 5 m/s 681 mmHg 79%
15:00 +3°C° 0.1 mm 4 m/s 681 mmHg 79%
16:00 +1°C° 0.1 mm 4 m/s 681 mmHg 80%
17:00 +1°C° 0.1 mm 3 m/s 681 mmHg 82%
18:00 0°C° 0.1 mm 3 m/s 681 mmHg 85%
19:00 -1°C° 0.1 mm 3 m/s 681 mmHg 88%
20:00 -1°C° 0 mm 2 m/s 681 mmHg 87%
21:00 -1°C° 0 mm 2 m/s 681 mmHg 86%
22:00 -2°C° 0 mm 2 m/s 682 mmHg 86%
23:00 -2°C° 0 mm 2 m/s 681 mmHg 86%
Arată mai mult

Formular de consimțământ

Meteoprog și furnizorii noștri de servicii pot stoca și accesa date personale, precum cookies, identificatori de dispozitiv sau alte tehnologii similare pe dispozitivul dumneavoastră și procesa astfel de date pentru a personaliza conținutul și reclamele, dar și pentru a oferi caracteristici de social media și pentru a analiza traficul.

  • Stocarea și/sau accesarea informațiilor pe dispozitivul dumneavoastră

    Cookies, identificatori de dispozitiv sau alte informații pot fi stocate sau accesate pe dispozitiv în scopurile indicate mai sus.

  • Reclame și conținut personalizat, evaluarea reclamelor și a conținutului, informații despre audiențe și dezvoltarea produselor

    Reclamele și conținutul pot fi personalizate pe baza unui profil. Pot fi adăugate date suplimentare pentru a personaliza mai bine reclamele și conținutul. Performanța reclamelor și conținutului poate fi măsurată. Pot fi obținute informații despre utilizatorii care au văzut reclamele și conținutul. Aceste date pot fi utilizate pentru a dezvolta sau îmbunătăți experiența utilizatorilor, sistemele și software-ul.

Dând clic pe ‘Sunt de acord’, permiteți utilizarea cookie-urilor menționate, a identificatorilor de dispozitiv, balizelor web sau altor tehnologii similare. Setările pot fi modificate din browser-ul dispozitivului dumneavoastră.

În anumite scopuri, interesele legitime pot prima asupra consimțământului. Puteți citi mai multe informații în acest sens în Politica privind Confidențialitatea Datelor și Cookie.